Vertical_Velocity
9 1 1 -2 -2 -3 -4 -3 1 -4 2 2 -2 0 6 2 3 13 12 10 1 -2 0 -1 -1 -5 -1 1 -1 -5 -1 -3
12 3 1 -1 -2 0 -2 -4 -0 1 0 -1 3 1 -0 3 -4 1 5 16 -3 -0 1 1 1 -2 3 -1 -2 -2 -1 1
7 6 1 0 -0 1 -3 -3 -3 1 -0 -1 -5 1 2 -2 -0 -1 1 4 13 6 -1 4 -1 4 -2 -1 -2 -1 2 2
0 1 3 0 1 2 -2 -2 -4 -1 3 -1 -1 -4 -1 3 -1 2 -0 10 13 9 -0 -3 1 2 -2 -1 0 1 1 -1
2 3 1 0 1 3 -2 -1 -1 -2 3 0 -0 0 -2 2 4 -3 5 -3 5 9 1 -3 0 2 -0 2 2 3 1 1
4 1 1 -0 3 2 -1 -0 1 -4 -0 1 -1 1 -3 -1 2 10 17 5 11 21 7 3 9 2 5 1 10 5 -3 1
-1 -0 1 0 5 1 -1 -1 1 -3 -3 -3 -1 -1 -1 -4 5 -3 -3 6 2 -0 9 10 8 7 2 2 8 3 1 -1
-0 -2 3 -1 5 0 1 -1 -3 -4 -2 -2 -2 1 -5 -2 -1 0 0 2 5 9 10 5 8 7 15 8 8 5 5 5
2 -1 2 -1 4 1 1 -0 0 -4 -4 -3 -3 0 3 -0 -2 -3 -1 -1 -0 -1 6 6 11 9 5 7 11 6 5 5
-2 2 2 -0 -0 2 0 0 1 0 -4 -1 -2 -1 -2 0 3 2 1 -1 1 5 5 0 5 3 6 1 10 12 -3 -1
5 2 1 0 2 3 0 1 -0 4 -3 -2 0 -1 -2 -2 2 4 3 -5 -6 6 -7 2 3 3 -1 1 1 -1 1 1
0 5 -1 -1 3 1 0 1 3 2 0 -4 -3 -1 -2 -6 -6 -2 -0 1 7 -3 3 3 0 1 -3 1 4 1 4 1
-1 -1 -8 -3 1 4 -1 1 1 3 3 0 -3 -4 -2 -3 -4 -7 -5 -6 -3 -4 -3 -3 -2 -3 -3 1 -2 -3 -2 -3
3 5 1 5 4 1 2 3 -3 -2 1 2 -0 -2 -1 1 1 -1 -3 -6 -4 -1 0 2 3 1 4 2 1 -1 -3 -3
4 7 9 8 6 4 4 2 -4 -5 -3 2 1 -0 -0 -0 0 1 1 0 -0 -1 -2 -3 -2 -3 -2 1 3 0 -0 1
-3 2 9 12 12 8 8 14 5 3 3 0 -3 -3 -1 1 1 1 -0 1 1 -1 -0 -1 -2 2 3 -1 -4 -5 -1 -0
1 2 5 16 0 12 -1 4 3 10 0 -2 -0 -2 -2 -0 0 1 2 3 1 3 3 1 2 2 -1 -1 -0 1 0 1
0 -3 -4 -6 -3 17 7 10 7 6 -9 19 10 -1 -2 -1 -1 -0 1 1 2 -1 -1 0 0 1 -1 -1 -1 -1 -2 -1
-1 14 6 7 -1 2 5 -1 9 13 11 2 1 12 -2 0 1 1 1 2 -1 4 1 1 3 2 3 3 1 2 0 -1
Height
5739 5736 5734 5732 5730 5726 5723 5721 5717 5713 5713 5712 5709 5708 5707 5706 5711 5713 5715 5722 5727 5733 5739 5745 5751 5756 5760 5762 5767 5773 5776 5780
5734 5732 5728 5727 5726 5723 5720 5719 5715 5711 5710 5710 5707 5704 5705 5705 5706 5708 5714 5718 5724 5731 5737 5744 5748 5754 5757 5757 5762 5766 5770 5775
5727 5725 5724 5723 5722 5720 5718 5716 5712 5709 5707 5705 5706 5703 5701 5702 5703 5706 5712 5717 5721 5728 5734 5742 5745 5749 5753 5753 5757 5761 5765 5769
5719 5718 5719 5718 5718 5718 5715 5713 5710 5707 5704 5703 5703 5702 5700 5700 5701 5705 5708 5714 5719 5724 5730 5735 5739 5744 5748 5749 5752 5757 5761 5763
5712 5713 5713 5713 5715 5714 5712 5711 5709 5705 5702 5700 5700 5700 5698 5699 5700 5702 5706 5711 5717 5721 5725 5729 5735 5740 5743 5745 5748 5752 5755 5757
5706 5706 5706 5708 5710 5710 5709 5708 5707 5704 5701 5698 5698 5699 5698 5697 5698 5700 5704 5707 5712 5716 5720 5725 5730 5734 5737 5740 5743 5746 5748 5750
5699 5700 5700 5703 5706 5706 5706 5706 5704 5703 5700 5697 5696 5697 5696 5696 5698 5697 5701 5704 5708 5711 5716 5722 5725 5727 5728 5734 5737 5740 5742 5743
5693 5695 5697 5699 5702 5702 5703 5703 5701 5701 5699 5697 5695 5694 5695 5695 5696 5696 5699 5701 5705 5709 5712 5716 5719 5721 5726 5728 5730 5732 5734 5735
5686 5689 5691 5694 5697 5698 5698 5699 5699 5698 5696 5696 5694 5693 5693 5693 5694 5695 5697 5698 5699 5705 5708 5710 5712 5715 5718 5720 5722 5724 5726 5727
5680 5684 5686 5689 5691 5693 5694 5695 5695 5695 5693 5693 5693 5693 5692 5692 5693 5693 5693 5695 5697 5699 5703 5706 5707 5710 5713 5715 5717 5720 5721 5723
5675 5679 5681 5684 5686 5688 5689 5691 5691 5691 5691 5690 5690 5691 5692 5692 5692 5692 5692 5692 5693 5699 5700 5702 5705 5706 5708 5711 5713 5715 5718 5719
5665 5672 5675 5678 5681 5683 5684 5686 5687 5687 5688 5687 5686 5687 5689 5691 5691 5691 5692 5692 5695 5696 5698 5699 5701 5703 5705 5707 5710 5712 5714 5715
5657 5662 5667 5672 5676 5677 5679 5682 5683 5683 5683 5684 5683 5682 5683 5686 5688 5688 5689 5692 5694 5695 5696 5697 5699 5701 5702 5705 5707 5709 5710 5710
5650 5654 5656 5662 5668 5671 5673 5675 5678 5679 5678 5679 5680 5679 5679 5681 5682 5684 5686 5688 5689 5690 5693 5695 5697 5699 5701 5702 5703 5704 5704 5704
5643 5648 5651 5653 5655 5660 5666 5669 5671 5673 5674 5674 5675 5676 5676 5677 5678 5680 5682 5684 5686 5687 5688 5690 5691 5693 5695 5695 5695 5695 5695 5694
5635 5640 5643 5645 5649 5652 5655 5661 5665 5666 5669 5670 5670 5671 5672 5674 5674 5675 5676 5678 5679 5682 5683 5684 5686 5688 5688 5688 5686 5686 5686 5687
5630 5635 5637 5637 5642 5645 5649 5653 5655 5658 5661 5664 5665 5666 5667 5669 5670 5672 5672 5674 5675 5676 5678 5679 5679 5680 5680 5679 5679 5680 5680 5680
5623 5626 5632 5634 5639 5642 5646 5648 5649 5651 5652 5656 5658 5660 5662 5662 5663 5665 5667 5667 5668 5670 5670 5671 5672 5674 5673 5672 5672 5672 5672 5672
5616 5619 5623 5627 5634 5638 5640 5639 5640 5642 5646 5649 5649 5653 5655 5656 5657 5658 5659 5660 5661 5662 5663 5664 5665 5666 5666 5665 5664 5663 5663 5662